Regional Weather Roundup
Issued by NWS State College, PA

Home | Current Version | Previous Version | Text Only | Print | Product List | Glossary Off
Versions: 1 2 3 4 5 6 7 8 9 10 11 12 13 14 15 16 17 18 19 20 21 22 23 24 25 26 27 28 29 30 31 32 33 34 35 36 37 38 39 40 41 42 43 44 45 46 47 48 49 50

000
ASUS41 KCTP 280203
RWRCTP

REGIONAL WEATHER ROUNDUP
NATIONAL WEATHER SERVICE STATE COLLEGE PA
1000 PM EDT THU JUL 27 2017

Note: "fair" indicates few or no clouds below 12,000 feet with no
significant weather and/or obstructions to visibility.

* = STATION THAT DOES NOT REPORT PRECIPITATION /E.G. RAIN...SNOW...ETC/
    THUNDER OR FOG.

PAZ002>004-007>009-013>016-020>023-029>032-280300-
WESTERN PENNSYLVANIA

CITY           SKY/WX    TMP DP  RH WIND       PRES   REMARKS
ERIE           PTCLDY    74  68  81 N6        29.90R
MEADVILLE      PTCLDY    69  66  90 N6        29.93R
FRANKLIN*      CLEAR     68  63  83 N3        29.93R
NEW CASTLE     FAIR      69  66  90 CALM      29.91R
BEAVER COUNTY  NOT AVBL
BUTLER*        CLOUDY    72  64  78 CALM      29.91R
PITTSBURGH INT TSTM      72  70  93 SW12G18   29.91F FOG
PITTSBURGH     CLOUDY    73  66  78 SW12      29.92R
INDIANA*       MOCLDY    72  68  88 CALM      29.95R
LATROBE        MOCLDY    72  70  94 SW9       29.93R
WASHINGTON CO* MOCLDY    70  66  88 CALM      29.93R
$$

PAZ004>006-010>012-017>019-024>028-033>037-041-042-045-046-049>053-280300-
CENTRAL PENNSYLVANIA

CITY           SKY/WX    TMP DP  RH WIND       PRES   REMARKS
BRADFORD       CLEAR     67  65  93 CALM      29.95S
DUBOIS         MOCLDY    71  60  68 CALM      29.93R
CLEARFIELD     CLEAR     68  62  81 N7        29.92S
JOHNSTOWN      CLEAR     72  65  78 W5        29.96R
ALTOONA        PTCLDY    67  65  93 CALM      29.92S
STATE COLLEGE  NOT AVBL
WILLIAMSPORT   PTCLDY    73  69  87 CALM      29.88R
SELINSGROVE    CLOUDY    70  70 100 CALM      29.90R FOG
FT INDIANTOWN  CLOUDY    72  72 100 NE3       29.90R
CAPITAL CITY   CLOUDY    78  70  76 E7        29.88R
HARRISBURG     MOCLDY    77  71  82 E5        29.88R
YORK           PTCLDY    75  73  93 CALM      29.88S
$$

PAZ038>040-043-044-047-048-054-055-060>062-067>071-280300-
EASTERN PENNSYLVANIA

CITY           SKY/WX    TMP DP  RH WIND       PRES   REMARKS
SCRANTON       PTCLDY    72  67  84 CALM      29.91S
MOUNT POCONO   CLOUDY    66  66 100 CALM      29.96S
ALLENTOWN      MOCLDY    72  68  87 CALM      29.90S
QUAKERTOWN*    MOCLDY    72  70  94 CALM      29.92R
READING        CLEAR     73  72  96 CALM      29.89R
LANCASTER      MOCLDY    74  72  93 E5        29.89R FOG
COATESVILLE    PTCLDY    73  72  94 CALM      29.92S
POTTSTOWN      CLOUDY    73  72  96 N5        29.91S
BLUE BELL      CLOUDY    73  70  88 CALM      29.91R
DOYLESTOWN       N/A    N/A N/A N/A MISG      29.90R
WILLOW GROVE   NOT AVBL
NORTH PHILA    CLOUDY    77  71  82 SE6       29.90S
PHILADELPHIA   CLOUDY    76  70  82 E3        29.89S
$$



USA.gov is the U.S. government's official web portal to all federal, state and local government web resources and services.